Overview Statistics Trail Chart Weather Telemetry Raw packets
 

This is the latest recevied weather packets stored in our database for station/object K6CED. If no packets are shown the sender has not sent any weather packets the latest 10 day(s).

<< 5 6 7 8 9 10 11 >>
Time Temp. Humidity Pressure Rain* Wind** Luminosity Snow
1788633086 31.11° C 23% 1017.2 hPa 0 mm - 599 W/m² -
1788632786 30.56° C 24% 1017.2 hPa 0 mm - 666 W/m² -
1788632485 30° C 25% 1017.2 hPa 0 mm - 942 W/m² -
1788632180 30° C 26% 1017.5 hPa 0 mm - 401 W/m² -
1788631879 30° C 26% 1017.4 hPa 0 mm - 382 W/m² -
1788631574 29.44° C 25% 1017.5 hPa 0 mm - 448 W/m² -
1788631270 29.44° C 26% 1017.3 hPa 0 mm - 610 W/m² -
1788630969 28.89° C 27% 1017.6 hPa 0 mm - 490 W/m² -
1788630664 28.89° C 27% 1017.5 hPa 0 mm - 368 W/m² -
1788630360 28.89° C 27% 1017.5 hPa 0 mm - 752 W/m² -
1788630055 28.89° C 28% 1017.2 hPa 0 mm - 881 W/m² -
1788629752 27.78° C 29% 1017.4 hPa 0 mm - 564 W/m² -
1788629447 27.22° C 30% 1017.3 hPa 0 mm - 617 W/m² -
1788629145 28.33° C 29% 1017.3 hPa 0 mm - 659 W/m² -
1788628841 27.78° C 30% 1017.4 hPa 0 mm - 693 W/m² -
1788628537 26.11° C 30% 1017.4 hPa 0 mm - 557 W/m² -
1788628233 25.56° C 34% 1017.3 hPa 0 mm - 501 W/m² -
1788627929 25.56° C 35% 1017.3 hPa 0 mm - 425 W/m² -
1788627624 25.56° C 37% 1017.4 hPa 0 mm - 626 W/m² -
1788627319 25° C 36% 1017.5 hPa 0 mm - 628 W/m² -
1788627014 24.44° C 37% 1017.5 hPa 0 mm - 620 W/m² -
1788626708 23.89° C 39% 1017.4 hPa 0 mm - 683 W/m² -
1788626403 24.44° C 41% 1017.4 hPa 0 mm - 418 W/m² -
1788626099 24.44° C 42% 1017.3 hPa 0 mm - 544 W/m² -
1788625795 24.44° C 44% 1017.6 hPa 0 mm - 614 W/m² -

* Rain latest hour (hover to see other rain measurements)
** Current wind speed in m/s (hover to see current wind gust speed)